This is the latest recevied weather packets stored in our database for station/object N9CQS-13. If no packets are shown the sender has not sent any weather packets the latest 10 day(s).
| Time | Temp. | Humidity | Pressure | Rain* | Wind** | Luminosity | Snow |
|---|---|---|---|---|---|---|---|
| 1777777291 | 7.22° C | 59% | 1020 hPa | 0 mm | - | - | - |
| 1777776691 | 7.22° C | 59% | 1020 hPa | 0 mm | - | - | - |
| 1777776092 | 7.22° C | 58% | 1019.8 hPa | 0 mm | - | - | - |
| 1777775492 | 7.22° C | 59% | 1019.8 hPa | 0 mm | - | - | - |
| 1777774891 | 7.78° C | 57% | 1019.7 hPa | 0 mm | - | - | - |
| 1777774291 | 7.78° C | 56% | 1019.7 hPa | 0 mm | - | - | - |
| 1777773692 | 8.33° C | 56% | 1019.6 hPa | 0 mm | - | - | - |
| 1777773091 | 8.33° C | 54% | 1019.4 hPa | 0 mm | - | - | - |
| 1777772491 | 8.33° C | 55% | 1019.4 hPa | 0 mm | - | - | - |
| 1777771891 | 8.89° C | 52% | 1019.2 hPa | 0 mm | - | - | - |
| 1777771291 | 9.44° C | 52% | 1019.1 hPa | 0 mm | - | - | - |
| 1777770692 | 9.44° C | 51% | 1019.1 hPa | 0 mm | - | - | - |
| 1777770092 | 10.56° C | 47% | 1019.1 hPa | 0 mm | - | - | - |
| 1777769491 | 10.56° C | 47% | 1018.9 hPa | 0 mm | - | - | - |
| 1777768891 | 11.11° C | 44% | 1018.8 hPa | 0 mm | - | - | - |
| 1777768291 | 11.67° C | 42% | 1018.8 hPa | 0 mm | - | - | - |
| 1777767691 | 12.22° C | 40% | 1018.8 hPa | 0 mm | - | - | - |
| 1777767091 | 12.22° C | 39% | 1018.7 hPa | 0 mm | - | - | - |
| 1777766491 | 12.22° C | 38% | 1018.7 hPa | 0 mm | - | - | - |
| 1777765891 | 12.78° C | 36% | 1018.7 hPa | 0 mm | - | - | - |
| 1777765291 | 12.78° C | 37% | 1018.7 hPa | 0 mm | - | - | - |
| 1777764692 | 12.78° C | 36% | 1018.7 hPa | 0 mm | - | - | - |
| 1777764092 | 12.78° C | 37% | 1018.8 hPa | 0 mm | - | - | - |
| 1777763491 | 12.78° C | 37% | 1018.8 hPa | 0 mm | - | - | - |
| 1777762891 | 13.33° C | 36% | 1018.8 hPa | 0 mm | - | - | - |
* Rain latest hour (hover to see other rain measurements)
** Current wind speed in m/s (hover to see current wind gust speed)